Theta_e
353 350 355 355 356 357 354 355 352 342 335 337 333 332 329 334 337 334 329 329 328 327 325 321 321 324 325 325 325 325 325 324 326 324 324 323 323 323 323 323 323 324 326
354 354 356 356 357 356 353 354 347 339 337 339 333 330 331 337 335 330 326 328 328 326 322 321 320 322 325 325 325 325 324 324 324 324 324 324 324 323 323 323 323 324 325
354 356 357 358 356 354 354 351 343 338 336 335 333 330 336 338 333 327 325 329 327 324 321 320 319 323 325 325 325 324 324 324 324 324 324 322 323 323 324 324 323 323 324
356 357 358 358 356 354 355 345 340 336 336 337 333 333 338 337 330 329 329 329 326 323 322 320 319 323 325 325 325 324 324 323 321 320 320 321 321 322 323 324 324 324 324
358 359 359 357 353 353 348 345 343 340 338 336 333 338 337 333 329 329 329 326 323 321 321 319 319 324 322 322 322 322 321 320 319 319 320 320 321 322 324 325 324 325 325
359 358 358 356 351 349 346 344 344 341 337 333 336 336 335 331 327 327 327 325 323 322 320 318 323 323 322 321 320 319 318 318 319 319 321 323 324 323 324 325 325 325 327
358 357 355 351 346 346 345 342 340 336 334 335 336 336 335 331 326 328 327 324 323 321 317 320 323 323 322 321 320 318 320 317 317 318 319 320 322 324 324 325 325 325 326
356 353 350 348 347 344 341 338 336 334 333 334 336 337 334 333 327 328 327 323 321 317 317 321 323 321 321 314 315 318 319 316 316 316 319 319 322 323 324 325 325 325 325
352 351 349 348 346 342 339 337 336 334 334 336 337 336 334 332 328 327 325 322 317 316 317 321 320 319 314 314 315 317 316 315 318 318 319 320 326 324 324 325 325 325 327
350 349 347 345 344 342 340 338 335 335 335 336 336 333 331 333 329 326 321 316 315 314 316 320 318 314 312 312 311 313 312 313 313 316 320 320 324 324 325 325 325 326 329
345 345 345 345 344 342 340 337 335 335 336 336 334 334 333 330 325 321 312 313 313 313 315 317 317 313 311 310 311 309 309 311 314 315 318 319 320 320 324 324 325 325 326
344 343 344 344 342 340 338 335 335 335 336 336 335 333 329 326 321 312 310 309 309 314 316 315 313 310 311 310 310 312 313 313 314 313 315 316 316 317 320 322 323 323 323
341 342 343 343 341 338 337 335 335 335 334 335 335 334 331 324 315 310 309 308 308 312 311 308 306 305 309 310 310 308 309 309 311 310 312 312 313 313 315 318 320 320 319
341 341 341 341 338 336 335 335 334 334 335 336 333 332 329 319 313 312 313 312 310 310 309 307 302 302 302 306 308 308 308 308 308 308 308 308 313 312 311 313 313 317 319
340 339 338 334 334 334 333 334 334 333 332 331 328 329 325 317 313 311 311 311 309 307 307 304 302 302 302 302 305 306 306 307 307 307 308 307 308 306 306 308 309 310 311
340 337 335 332 332 330 328 325 325 324 323 323 323 326 317 312 310 310 309 307 305 304 304 302 300 299 299 300 302 304 305 305 306 306 307 307 306 306 306 306 309 308 307
337 336 332 331 328 327 326 326 327 322 323 325 325 319 311 310 310 309 308 306 304 304 302 300 299 298 298 298 299 302 303 303 304 305 305 305 305 305 305 304 306 307 308
334 332 333 331 329 326 327 327 327 326 324 316 311 309 310 310 309 309 307 309 307 303 301 300 299 298 297 297 298 300 301 301 302 303 303 303 303 303 303 303 302 304 306
334 334 332 331 329 328 327 328 327 326 324 315 310 309 309 309 309 309 308 309 306 303 301 299 297 297 298 297 297 299 300 300 300 301 301 301 302 302 302 301 301 301 303
331 331 331 331 329 329 329 328 327 326 323 315 313 312 311 310 310 309 310 307 305 303 301 299 296 295 295 297 297 297 299 300 300 300 300 300 300 300 300 301 300 299 300
331 330 329 331 331 329 329 327 326 326 323 317 315 314 312 312 309 311 310 307 304 302 300 298 295 294 294 294 296 296 297 298 298 299 299 299 299 300 300 300 300 300 299
327 328 329 329 328 327 327 326 325 324 323 318 316 313 310 311 309 310 309 306 303 301 299 297 295 293 293 293 294 295 296 297 297 298 299 299 299 299 299 299 299 299 298
325 325 325 326 327 325 326 325 324 322 321 320 318 315 314 313 310 310 308 305 302 300 298 296 294 293 293 293 293 294 295 295 296 297 298 299 299 299 300 299 299 299 299
325 325 326 326 325 325 325 325 324 322 320 317 318 315 314 311 310 309 306 304 302 300 297 295 293 292 293 294 294 294 293 294 295 296 297 297 298 298 299 299 299 298 298
324 325 325 326 325 324 324 325 322 319 318 315 314 313 310 309 309 308 306 303 302 299 297 295 293 292 292 293 293 293 293 293 293 294 296 296 297 297 298 298 298 297 297
324 323 323 322 323 323 323 322 314 315 314 312 312 309 309 309 308 307 305 303 301 299 297 295 293 292 292 292 292 293 293 293 293 293 295 296 296 295 297 296 296 297 296
Wind_Speed
34 40 27 29 25 21 21 22 17 16 18 31 16 12 8 8 6 6 7 6 6 9 11 14 17 18 19 18 20 23 25 29 20 37 36 35 41 38 37 34 33 34 33
29 28 27 23 22 24 28 30 25 23 25 23 16 12 11 8 9 10 9 6 7 10 13 17 18 20 20 19 21 26 30 33 35 34 40 36 33 35 37 33 32 32 30
25 24 23 24 27 25 30 31 28 24 29 22 15 13 11 11 12 11 9 7 9 11 12 16 19 21 22 22 25 31 31 37 38 37 36 40 38 32 25 29 30 32 33
23 23 23 24 28 29 31 31 31 32 22 18 15 13 13 12 11 9 10 9 10 11 14 17 19 20 21 23 27 32 34 40 39 33 32 34 33 31 24 23 22 25 30
21 21 22 22 23 24 24 23 21 20 17 15 14 14 13 12 11 11 10 11 11 14 16 18 19 20 20 22 28 33 38 39 37 31 29 28 27 25 20 18 22 22 22
19 18 18 19 19 20 17 19 19 17 16 15 15 15 13 12 13 12 12 11 10 13 16 20 19 19 21 26 29 37 35 37 35 29 25 23 26 25 23 18 17 12 5
15 14 15 15 16 16 17 17 16 17 16 16 15 14 14 12 12 11 11 9 12 14 17 16 17 19 21 25 31 33 36 38 30 31 28 31 33 27 23 17 18 15 15
10 10 11 13 15 18 17 17 17 16 16 16 15 14 12 10 10 10 10 10 12 14 14 14 15 18 20 27 28 30 39 42 35 40 38 41 37 27 23 22 17 16 17
9 9 10 13 17 20 19 18 15 15 15 14 12 11 9 7 9 8 8 10 11 14 13 13 13 15 21 25 24 27 38 39 43 43 43 38 20 9 14 16 12 8 4
7 7 10 13 18 19 17 15 14 14 12 10 10 8 7 5 7 6 6 7 11 13 13 12 14 17 19 22 21 23 28 37 41 44 40 43 25 8 6 9 9 6 6
5 6 8 13 17 15 14 13 13 12 10 10 8 6 5 5 5 4 5 6 8 11 12 12 13 17 15 19 22 22 24 28 36 35 34 37 37 31 4 4 6 7 9
7 8 8 13 15 11 11 11 11 12 11 9 8 6 4 4 5 2 4 7 7 7 9 10 11 14 13 18 22 25 28 27 28 32 33 36 37 36 30 27 24 18 13
16 7 7 11 12 11 12 12 12 11 9 9 8 6 6 6 5 2 2 5 8 7 7 9 11 12 14 16 21 25 26 24 24 28 27 31 32 36 36 35 28 23 33
10 8 6 9 9 9 9 10 11 10 9 7 7 7 7 8 6 3 2 5 9 9 9 9 12 12 14 15 17 21 21 21 20 20 22 26 37 40 36 33 31 25 32
9 7 7 9 11 9 7 7 7 7 7 6 7 8 9 10 8 6 6 7 8 8 8 10 14 15 16 17 17 18 18 19 20 20 22 22 22 29 27 31 35 26 25
8 5 6 10 8 10 11 11 9 8 6 8 10 7 10 13 12 9 9 9 9 9 10 12 13 13 16 16 17 16 17 18 19 19 20 20 21 21 23 22 22 24 27
7 5 5 6 11 14 16 13 8 2 3 5 7 14 17 17 13 11 9 10 12 12 12 11 11 12 13 14 14 14 16 16 16 17 18 20 20 20 22 23 23 21 21
6 6 5 9 10 13 10 9 7 7 8 12 18 19 17 16 13 9 8 8 9 13 12 11 11 12 12 12 13 14 14 15 16 18 18 19 19 19 19 20 21 18 17
4 5 4 5 6 8 8 6 8 8 10 16 18 18 17 14 12 8 7 7 9 11 10 10 10 10 11 11 11 11 13 14 15 16 17 18 18 18 18 18 18 20 18
3 5 5 6 6 6 8 8 8 9 13 18 19 17 15 14 10 8 7 8 9 9 8 9 10 9 9 10 11 11 11 13 14 15 16 17 17 17 17 17 18 18 18
4 5 6 5 5 6 8 10 11 12 14 18 17 16 16 12 12 7 7 8 8 8 8 8 8 9 10 10 10 11 10 11 12 12 14 14 14 14 14 14 14 15 16
4 4 5 6 6 7 8 9 10 11 14 18 16 14 16 11 10 7 9 9 8 7 7 7 8 9 10 10 11 10 10 10 11 12 12 13 13 12 12 14 14 15 17
4 6 6 6 6 8 8 8 10 14 17 18 16 16 16 13 11 8 9 9 7 6 6 6 8 8 9 10 10 9 9 10 10 11 11 12 12 12 12 13 14 15 15
5 4 5 5 6 6 7 9 11 14 16 18 22 22 17 14 11 10 10 10 8 6 5 6 8 9 9 10 10 10 9 10 9 9 10 10 10 11 11 11 12 14 14
5 5 5 5 5 5 9 9 12 15 17 20 23 18 13 13 12 11 11 10 8 6 5 5 6 7 9 11 12 11 14 12 11 9 8 8 9 10 10 11 10 11 13
6 5 5 5 5 6 8 11 13 16 20 21 17 15 15 13 12 12 11 10 8 6 5 5 5 7 7 9 12 14 16 15 13 11 9 9 9 10 8 9 9 9 11
Wind_Direction
213 224 219 218 212 213 206 219 210 208 231 252 246 238 244 241 247 256 264 269 280 299 309 321 323 318 311 313 310 307 305 307 294 294 291 284 284 278 277 272 270 271 270
215 217 219 210 199 205 217 212 208 222 247 241 236 241 239 235 235 245 244 245 280 300 316 324 325 321 315 314 313 308 306 300 290 291 294 287 281 276 269 263 263 268 268
214 216 217 209 208 205 214 203 208 223 231 236 233 228 227 226 237 240 244 252 279 296 311 318 321 321 315 310 310 304 301 302 296 295 295 295 288 283 258 260 252 253 260
212 214 214 209 209 209 218 201 201 205 220 215 218 220 221 221 229 233 242 254 274 301 316 319 321 319 310 304 308 305 306 308 304 298 293 291 292 288 270 253 250 246 251
207 213 213 208 211 216 207 198 196 204 209 212 205 210 210 214 221 230 240 261 287 307 319 322 321 316 309 314 309 309 309 309 307 301 299 293 286 285 256 246 238 247 249
203 208 209 206 205 204 190 195 196 204 203 196 202 205 206 217 227 239 251 271 294 306 321 321 320 321 322 318 315 317 311 307 303 302 295 290 283 272 265 234 224 236 255
201 201 196 194 188 184 177 182 187 189 190 195 201 203 210 217 229 244 255 273 300 312 321 314 320 322 329 325 323 327 329 326 314 314 304 297 289 271 260 235 219 226 238
197 184 186 186 180 171 174 182 185 189 191 195 198 203 213 224 231 245 260 282 302 316 316 311 319 327 333 335 330 333 341 342 336 335 321 315 297 255 244 235 226 234 260
185 185 186 183 177 172 177 181 188 185 189 192 190 198 211 213 237 255 273 301 312 323 318 316 328 338 338 345 341 342 347 343 360 353 348 358 2 239 232 214 213 218 274
174 174 177 180 183 179 180 179 185 185 184 182 178 186 197 207 248 255 291 312 323 323 326 331 336 340 345 357 356 349 344 347 351 348 354 11 21 3 208 206 219 219 262
148 171 188 186 191 181 171 177 178 175 173 178 171 173 187 211 219 250 308 330 324 328 331 340 340 338 351 6 14 2 356 0 0 1 6 11 19 23 354 239 243 268 291
147 151 197 192 185 181 174 174 173 175 173 173 182 177 181 198 199 249 318 332 347 338 336 340 337 341 355 17 18 18 20 20 11 10 14 15 18 15 24 55 66 68 65
147 125 178 197 183 175 173 174 172 176 184 196 194 201 202 190 182 175 3 6 13 5 354 337 339 351 2 10 21 16 19 17 15 17 14 18 19 22 34 43 47 51 61
93 125 149 188 174 162 168 180 181 181 200 200 189 211 198 177 161 138 57 19 17 14 3 359 7 11 13 17 14 13 13 15 16 18 19 21 41 39 29 36 34 34 56
83 95 137 161 172 149 149 166 180 170 205 202 218 209 196 170 150 119 81 51 29 14 20 16 18 11 19 17 15 13 9 13 14 13 21 20 25 36 30 36 46 36 44
84 104 149 161 162 162 158 151 160 174 205 240 232 187 158 150 136 117 87 67 47 45 39 30 23 12 19 15 11 8 10 9 11 13 17 20 22 24 25 27 35 42 45
90 103 132 163 177 171 165 160 165 179 228 227 179 156 152 141 133 114 96 76 60 54 47 37 23 18 17 14 10 8 5 5 9 16 20 20 19 20 29 30 27 35 36
94 125 152 169 170 174 165 173 168 178 158 133 142 148 142 139 131 117 95 70 55 50 48 37 30 16 17 13 14 9 7 12 14 17 20 22 23 26 29 29 33 29 36
130 133 156 143 151 164 183 183 186 178 166 154 145 143 146 140 133 123 100 76 63 53 41 36 32 25 19 14 14 13 9 14 18 19 21 22 21 25 27 27 27 31 31
116 173 171 165 153 167 181 184 185 178 171 165 164 161 158 150 144 131 115 92 75 61 42 35 32 27 23 20 17 17 15 18 21 21 23 24 25 27 26 24 29 29 28
195 187 178 175 199 198 198 190 183 178 175 169 167 172 171 161 148 137 121 104 89 69 48 37 30 26 24 23 23 20 19 18 20 20 20 20 22 27 26 28 33 32 32
188 157 165 189 177 168 161 157 158 161 163 163 162 168 174 166 149 138 125 114 101 84 60 44 36 31 25 24 21 21 18 15 15 16 14 14 17 22 23 28 32 32 32
130 142 157 160 160 145 138 136 142 150 153 153 152 156 170 176 156 139 128 126 114 94 65 47 39 33 27 26 22 18 16 12 9 10 9 9 13 17 19 24 30 32 31
154 150 150 136 142 142 138 141 144 150 153 154 150 155 168 155 147 137 137 136 126 103 78 55 48 45 37 33 27 23 18 18 8 3 9 7 11 15 21 26 31 30 29
135 122 122 139 143 143 147 148 148 151 150 155 157 155 155 146 142 143 144 140 131 115 95 72 57 49 44 42 37 32 26 25 26 30 14 15 17 23 28 32 32 35 34
124 116 117 116 132 147 151 144 144 147 148 151 156 153 154 147 150 151 146 141 134 127 113 87 67 59 50 36 34 32 29 31 32 38 35 25 28 29 31 32 34 38 37